Flag for Germany Weather past 2 weeks in Neu-Ulm, Bavaria, Germany

34 °F

Partly sunny.

Feels Like: 31 °F
Forecast: 23 / 35 °F
Wind: 3 mph from Southwest

Location: Laupheim Airport

Current Time: Nov 26, 2015 at 10:40:33 AM

Latest Report: Nov 26, 2015 at 9:20 AM

Visibility: 4 mi

Pressure: 29.89 "Hg

Humidity: 93%

Dew point: 32 °F

Location of Neu-UlmLocation

Historic Weather in Neu-Ulm — Graph


Neu-Ulm temperature yesterday

Maximum temperature yesterday: 37 °F (at 2:20 PM)
Minimum temperature yesterday: 32 °F (at 2:20 AM)
Average temperature yesterday: 34 °F

Past Weeks' High & Low Weather Summary

High63 °F (Nov 16, 1:20 PM)100% (Nov 11, 10:20 PM)30.45 "Hg (Nov 11, 10:20 PM)
Low21 °F (Nov 24, 5:20 AM)45% (Nov 16, 4:20 PM)29.39 "Hg (Nov 21, 2:20 PM)
Average43 °F79%30.04 "Hg
* Reported Nov 11 9:20 AM — Nov 26 9:20 AM, Neu-Ulm, Weather by CustomWeather, © 2015

Note: Actual official high and low records may vary slightly from our data, if they occured in-between our weather recording intervals... More about our weather records


Neu-Ulm weather history for previous 24 hours

Time TempWeatherWind HumidityBarometerVisibility
9:20 AM
Thu, Nov 26
34 °FPartly sunny.3 mph93%29.89 "Hg4 mi
8:20 AM34 °FFog.2 mph93%29.86 "Hg3 mi
7:20 AM34 °FPassing clouds.2 mph93%29.83 "Hg4 mi
7:02 AM34 °FPartly cloudy.3 mph93%29.83 "Hg4 mi
6:20 AM34 °FPassing clouds.1 mph93%29.83 "Hg4 mi
5:20 AM34 °FPassing clouds.3 mph93%29.80 "Hg4 mi
4:51 AM34 °FPassing clouds.2 mph93%29.80 "Hg4 mi
3:20 AM32 °FIce fog.5 mph100%29.77 "Hg2 mi
2:20 AM34 °FFog.5 mph93%29.77 "Hg2 mi
1:20 AM34 °FPartly cloudy.5 mph93%29.74 "Hg4 mi
12:20 AM34 °FPassing clouds.3 mph93%29.74 "Hg4 mi
11:20 PM
Wed, Nov 25
34 °FLow clouds.5 mph93%29.74 "Hg4 mi
10:20 PM34 °FPartly cloudy.3 mph93%29.74 "Hg4 mi
9:20 PM34 °FPartly cloudy.6 mph93%29.74 "Hg5 mi
8:20 PM36 °FPassing clouds.6 mph93%29.74 "HgN/A
7:20 PM36 °FPassing clouds.5 mph87%29.74 "HgN/A
6:20 PM36 °FPartly cloudy.6 mph93%29.74 "HgN/A
5:47 PM36 °FLight rain. Passing clouds.6 mph93%29.71 "HgN/A
5:20 PM36 °FPartly cloudy.6 mph93%29.71 "HgN/A
4:20 PM36 °FBroken clouds.7 mph93%29.71 "HgN/A
3:20 PM36 °FPartly sunny.9 mph93%29.71 "HgN/A
2:20 PM37 °FPartly sunny.8 mph87%29.71 "HgN/A
1:20 PM36 °FBroken clouds.10 mph87%29.74 "HgN/A
12:53 PM36 °FBroken clouds.9 mph87%29.74 "HgN/A
12:20 PM36 °FPartly sunny.12 mph87%29.77 "HgN/A
11:20 AM34 °FPartly sunny.8 mph93%29.80 "HgN/A
10:20 AM34 °FMostly cloudy.9 mph93%29.77 "HgN/A
10:00 AM34 °FMostly cloudy.9 mph93%29.80 "Hg5 mi
Weather by CustomWeather, © 2015

See weather overviewHow to use our weather pages